Terminal Aerodrome Forecast
Issued by NWS Charleston, WV

Current Version | Previous Version | Graphics & Text | Print | Product List | Glossary On
Versions: 1 2 3 4 5 6 7 8 9 10 11 12 13 14 15 16 17 18 19 20 21 22 23
000
FTUS41 KRLX 232300
TAFPKB
TAF
KPKB 232322Z 2400/2424 15003KT 6SM -SN BR BKN020 OVC045
     FM240300 VRB03KT 2SM -SN BR BKN008 OVC015
     FM240800 VRB04KT 4SM -SN BR OVC010
     FM241000 32004KT 5SM -SN BR BKN015
     FM241200 32004KT 6SM BR BKN015=

USA.gov is the U.S. government's official web portal to all federal, state and local government web resources and services.